Temp
10 9 9 9 9 10 10 10 10 10 9 9 9 9 9 9 9 10 10 10 10 10 10 10 10 10 10 10 10 10 10 10 10 9 9 9 10 10 10 10 10 10
9 9 9 9 9 9 9 10 10 10 10 10 10 10 9 9 9 10 10 10 10 10 10 9 10 10 10 10 10 10 10 10 10 9 9 9 9 9 9 9 9 9
9 9 9 9 9 9 9 9 10 10 10 10 10 10 10 10 10 10 10 10 10 9 9 9 9 9 9 9 9 10 10 10 10 10 9 9 9 9 9 9 9 9
9 9 9 9 9 9 9 9 10 10 10 10 10 10 10 10 10 10 10 10 9 9 9 9 10 9 9 9 9 9 10 10 10 10 10 10 9 9 9 9 9 9
10 9 9 9 10 10 9 9 10 10 10 10 10 10 10 10 10 10 10 10 10 9 9 10 10 9 9 9 9 9 9 10 10 9 10 10 10 10 10 10 9 9
10 10 9 9 9 10 10 10 10 10 10 10 10 10 10 10 10 10 10 10 10 10 10 10 10 10 10 10 9 9 9 9 9 9 9 10 10 10 10 10 9 9
10 10 10 9 9 9 9 9 10 10 10 10 10 9 9 10 10 10 10 10 10 10 10 10 10 10 10 10 10 9 9 9 9 9 9 9 10 9 9 9 9 9
10 10 10 9 9 9 9 9 9 9 9 10 10 9 9 9 9 10 10 10 10 10 10 10 10 10 10 10 10 10 9 9 9 9 9 9 9 9 9 9 9 9
9 9 9 9 9 9 9 9 9 9 9 9 9 9 9 9 9 9 10 10 10 10 10 10 10 10 10 10 10 10 9 9 9 9 9 9 9 9 9 9 9 9
9 9 9 9 9 9 9 9 9 9 9 9 9 9 9 9 9 9 9 9 9 9 9 9 9 9 10 10 9 9 9 9 9 9 9 9 9 9 9 9 9 9
9 9 9 9 9 9 9 9 9 9 9 9 9 9 9 9 9 9 9 9 9 9 9 9 9 9 9 9 9 9 9 9 9 9 9 9 9 9 9 9 9 9
10 9 9 9 9 9 9 9 9 9 9 9 9 9 9 9 9 9 9 9 9 9 9 9 9 9 9 9 9 9 9 9 9 9 9 9 9 9 9 9 9 9
10 10 10 10 10 10 10 10 10 10 10 9 9 9 9 9 9 9 9 9 9 9 9 9 9 9 9 9 9 9 9 9 9 9 9 9 9 9 9 9 9 9
10 10 10 10 10 10 10 10 10 10 10 10 10 10 10 9 9 9 9 9 9 9 9 9 9 9 9 9 9 9 9 9 9 9 9 9 9 9 9 9 9 9
10 10 10 10 10 10 10 10 10 10 10 10 10 10 10 10 10 10 10 9 9 9 9 9 9 9 9 9 9 9 9 9 9 9 9 9 9 9 9 9 9 9
9 9 10 10 10 10 10 10 10 10 10 10 9 9 10 10 10 10 10 10 10 9 9 9 9 9 9 9 10 10 10 10 10 10 10 9 9 9 9 9 9 9
9 9 9 9 9 9 10 10 10 10 10 10 10 9 9 9 10 10 10 10 10 9 9 9 9 9 9 9 10 10 10 10 10 10 10 10 10 10 10 10 9 9
9 9 9 9 9 9 9 9 10 10 9 9 9 9 9 9 9 9 10 10 10 10 9 9 9 9 9 9 9 10 10 10 10 10 10 10 10 10 10 10 10 10
9 9 9 9 9 10 10 9 9 9 9 9 9 9 9 9 9 9 9 10 10 10 9 9 9 10 9 9 9 9 10 10 10 10 10 10 10 10 10 10 10 10
10 9 9 9 9 9 9 9 9 9 9 9 9 9 9 9 9 9 9 9 10 10 10 10 10 10 10 10 10 10 10 10 10 10 10 10 10 10 10 10 10 10
10 10 10 10 10 9 9 9 9 9 9 9 9 9 9 9 9 9 9 9 10 10 10 10 10 10 10 10 10 10 10 10 10 10 10 10 10 10 10 10 10 10
10 10 10 10 10 10 9 9 9 9 9 9 9 9 9 9 9 9 9 9 10 10 10 10 10 10 10 10 10 10 10 10 10 10 10 10 10 10 10 10 9 9
9 9 9 9 9 9 9 9 9 9 8 8 9 9 9 9 9 9 9 9 9 9 10 10 10 10 10 10 10 10 10 10 10 10 9 9 9 9 9 9 9 9
9 9 9 9 9 9 9 9 9 9 8 9 9 9 9 9 9 9 9 9 9 9 9 9 9 9 10 9 9 9 10 10 10 10 9 9 9 9 9 9 9 9
9 9 9 9 9 8 8 9 9 9 9 9 9 9 9 9 9 9 9 9 9 9 9 9 9 10 10 9 9 9 9 10 10 10 9 9 9 9 9 9 9 9
8 8 9 9 9 9 8 9 9 8 9 9 9 9 9 9 9 9 9 9 9 9 9 9 9 9 10 9 9 9 9 10 10 10 10 9 9 9 9 9 9 9
Height
3249 3250 3251 3252 3252 3253 3254 3255 3256 3257 3258 3258 3259 3260 3260 3261 3262 3263 3264 3265 3266 3267 3268 3269 3269 3270 3271 3272 3272 3273 3273 3273 3274 3274 3275 3275 3276 3276 3277 3277 3278 3278
3249 3250 3251 3252 3252 3253 3254 3255 3256 3257 3258 3258 3259 3260 3260 3261 3262 3263 3264 3264 3265 3266 3267 3268 3269 3270 3270 3271 3272 3272 3273 3273 3273 3274 3274 3275 3275 3276 3276 3277 3277 3278
3249 3250 3251 3252 3253 3253 3255 3255 3256 3257 3257 3258 3259 3260 3260 3261 3262 3263 3263 3264 3265 3266 3267 3268 3268 3269 3270 3270 3271 3271 3272 3272 3273 3273 3273 3274 3275 3275 3276 3276 3277 3277
3249 3249 3250 3252 3252 3253 3255 3255 3256 3257 3257 3258 3259 3259 3260 3261 3262 3262 3263 3264 3265 3265 3266 3267 3268 3268 3269 3270 3270 3271 3271 3272 3272 3272 3273 3273 3274 3275 3275 3276 3276 3277
3248 3249 3250 3251 3252 3253 3254 3255 3256 3256 3257 3258 3258 3259 3260 3260 3261 3262 3263 3264 3264 3265 3265 3266 3267 3267 3268 3269 3269 3270 3270 3271 3271 3272 3272 3272 3273 3274 3274 3275 3275 3276
3247 3248 3249 3250 3251 3252 3253 3254 3255 3256 3257 3257 3258 3259 3259 3260 3261 3262 3262 3263 3264 3264 3265 3265 3266 3266 3267 3268 3268 3269 3269 3270 3270 3271 3271 3271 3272 3273 3273 3274 3274 3275
3246 3247 3248 3249 3250 3251 3252 3253 3254 3255 3256 3257 3258 3259 3259 3260 3261 3261 3262 3263 3263 3264 3265 3265 3265 3266 3266 3267 3267 3268 3269 3269 3270 3270 3270 3271 3271 3271 3272 3272 3273 3273
3244 3245 3246 3247 3249 3250 3251 3252 3253 3254 3255 3256 3257 3258 3259 3259 3260 3261 3261 3262 3263 3263 3264 3265 3265 3265 3266 3266 3267 3267 3268 3268 3269 3269 3269 3270 3270 3270 3271 3271 3272 3272
3243 3244 3245 3246 3247 3248 3250 3251 3252 3252 3253 3254 3255 3256 3258 3259 3259 3260 3261 3261 3262 3262 3263 3264 3264 3265 3266 3266 3266 3267 3267 3267 3268 3268 3269 3269 3269 3269 3270 3270 3271 3271
3241 3242 3243 3245 3246 3247 3248 3249 3250 3251 3252 3253 3254 3255 3256 3257 3258 3259 3260 3261 3261 3262 3262 3263 3263 3264 3265 3265 3266 3266 3266 3267 3267 3268 3268 3268 3268 3268 3269 3269 3270 3270
3239 3240 3241 3243 3244 3245 3246 3247 3248 3249 3250 3251 3252 3253 3254 3255 3256 3258 3259 3259 3260 3260 3261 3261 3261 3262 3263 3264 3264 3265 3266 3266 3266 3267 3267 3267 3267 3268 3268 3268 3269 3269
3237 3238 3239 3241 3242 3243 3244 3245 3246 3247 3249 3250 3251 3252 3252 3253 3254 3256 3257 3258 3258 3259 3259 3260 3260 3261 3261 3262 3263 3263 3264 3265 3265 3266 3266 3266 3267 3267 3267 3267 3267 3268
3235 3237 3238 3239 3240 3241 3243 3244 3245 3246 3247 3248 3249 3250 3251 3252 3253 3254 3255 3256 3256 3257 3258 3258 3259 3259 3260 3260 3261 3262 3263 3263 3264 3264 3265 3265 3265 3265 3266 3266 3266 3266
3234 3235 3236 3237 3239 3240 3241 3242 3243 3244 3245 3246 3247 3248 3249 3250 3251 3252 3253 3254 3255 3255 3256 3257 3257 3258 3259 3259 3259 3260 3260 3261 3262 3262 3263 3263 3264 3264 3264 3264 3265 3265
3232 3233 3234 3235 3237 3238 3239 3240 3241 3241 3242 3244 3245 3246 3247 3248 3249 3250 3251 3252 3253 3254 3254 3255 3256 3257 3258 3258 3258 3258 3258 3259 3260 3260 3261 3261 3262 3262 3262 3263 3263 3263
3229 3230 3231 3233 3234 3236 3237 3238 3239 3239 3240 3241 3242 3243 3245 3246 3247 3248 3249 3250 3251 3252 3253 3253 3254 3255 3256 3256 3256 3256 3256 3257 3257 3258 3259 3259 3260 3260 3260 3261 3261 3261
3226 3227 3229 3230 3231 3233 3234 3235 3236 3237 3238 3239 3240 3241 3242 3243 3244 3245 3246 3247 3248 3249 3251 3252 3252 3253 3253 3254 3254 3255 3255 3255 3256 3256 3257 3257 3258 3258 3259 3259 3259 3259
3223 3224 3226 3227 3228 3230 3231 3232 3233 3234 3236 3237 3237 3238 3239 3240 3241 3243 3244 3245 3246 3247 3248 3248 3249 3249 3250 3251 3252 3252 3253 3254 3254 3255 3255 3256 3256 3256 3257 3257 3257 3257
3219 3220 3222 3223 3225 3227 3228 3229 3230 3231 3233 3234 3234 3235 3236 3237 3238 3240 3241 3242 3243 3243 3244 3245 3245 3246 3247 3248 3249 3250 3250 3251 3252 3252 3253 3253 3254 3254 3254 3255 3255 3255
3216 3218 3219 3220 3222 3224 3225 3226 3227 3228 3230 3231 3231 3232 3233 3233 3235 3236 3237 3238 3239 3240 3240 3241 3242 3243 3244 3245 3246 3247 3248 3248 3249 3249 3250 3251 3251 3251 3251 3252 3252 3253
3213 3214 3216 3217 3219 3220 3221 3222 3223 3225 3226 3227 3228 3228 3229 3230 3231 3232 3234 3235 3236 3236 3236 3237 3239 3240 3241 3242 3243 3244 3245 3245 3246 3246 3247 3248 3248 3248 3248 3249 3249 3250
3210 3211 3212 3214 3215 3217 3217 3218 3219 3221 3222 3224 3224 3225 3225 3226 3227 3229 3230 3232 3232 3233 3233 3235 3236 3238 3239 3240 3241 3241 3242 3243 3243 3243 3244 3245 3245 3245 3245 3246 3246 3247
3209 3209 3210 3212 3213 3214 3215 3215 3216 3217 3218 3220 3221 3222 3222 3223 3224 3226 3227 3228 3229 3229 3231 3232 3233 3234 3236 3237 3237 3238 3239 3239 3240 3241 3241 3242 3242 3242 3242 3243 3243 3243
3207 3208 3209 3210 3211 3212 3212 3213 3213 3214 3215 3217 3218 3219 3220 3221 3223 3224 3224 3225 3225 3226 3228 3229 3229 3231 3232 3233 3233 3234 3236 3236 3237 3237 3238 3238 3239 3239 3239 3239 3240 3240
3205 3206 3207 3208 3209 3210 3211 3211 3212 3212 3213 3214 3215 3217 3218 3220 3221 3222 3222 3223 3223 3224 3225 3225 3226 3227 3228 3229 3230 3231 3232 3233 3233 3234 3234 3235 3235 3235 3236 3236 3236 3236
3203 3204 3205 3206 3207 3208 3209 3210 3210 3210 3211 3212 3213 3214 3216 3217 3219 3220 3220 3220 3219 3220 3221 3222 3223 3224 3224 3225 3226 3227 3228 3229 3229 3230 3230 3231 3231 3231 3232 3232 3232 3232
Wind_Speed
10 11 12 12 11 10 10 11 10 10 9 9 9 10 10 10 10 10 10 11 11 10 10 9 9 8 8 8 8 8 7 7 6 6 6 5 5 4 3 3 3 3
11 11 12 12 12 11 11 11 11 10 10 9 9 9 9 10 10 10 11 11 11 10 10 10 10 9 9 8 8 8 8 7 7 7 7 6 6 5 4 4 3 4
12 12 12 12 12 11 11 11 11 11 10 9 9 9 9 10 10 11 11 11 11 11 10 10 10 10 9 9 9 8 8 8 7 8 8 7 7 7 6 5 5 5
14 14 14 13 13 13 12 12 12 12 11 10 10 10 10 10 10 10 11 11 11 11 11 10 10 10 9 9 9 8 8 8 7 7 8 9 9 8 7 7 6 6
16 15 15 15 15 14 13 12 12 12 12 11 11 11 11 11 11 11 11 11 11 11 11 11 10 10 10 9 9 8 8 8 7 7 8 9 9 9 9 8 7 7
16 16 16 16 16 15 14 14 13 13 13 12 12 12 12 12 12 12 12 12 12 11 11 11 11 10 10 9 9 8 8 8 8 8 8 9 9 9 9 9 9 9
16 17 17 18 18 17 16 15 14 14 14 13 13 13 13 13 14 14 14 13 13 12 12 11 11 10 10 9 9 9 9 8 9 9 9 9 9 9 10 10 10 10
17 17 18 19 19 18 18 16 15 15 15 14 14 14 14 14 15 15 15 14 13 13 12 12 12 11 10 10 10 9 9 9 9 9 9 9 9 9 10 10 10 10
19 19 19 19 19 19 19 18 17 16 16 15 15 15 15 15 15 15 15 15 14 14 14 13 13 12 11 11 10 10 9 9 9 9 9 9 8 9 9 9 9 10
20 20 20 20 19 20 20 20 19 18 17 17 16 16 16 16 16 16 15 15 15 15 14 14 14 13 12 12 11 10 10 10 9 9 9 9 9 9 9 9 9 9
21 21 21 21 21 21 21 22 22 21 20 19 18 17 17 16 16 16 16 15 15 15 15 15 14 14 13 13 12 12 11 11 11 11 10 10 10 10 10 9 9 9
22 22 22 22 22 23 22 22 23 23 22 22 21 20 19 18 18 17 16 17 16 16 16 16 15 15 14 14 13 13 13 13 13 12 12 12 12 12 12 11 11 10
24 23 23 23 23 23 23 23 23 23 23 23 23 22 21 21 20 19 18 18 18 18 18 17 17 16 16 15 15 14 14 14 14 14 14 14 14 14 14 13 13 13
24 24 24 24 23 23 23 22 22 22 23 23 24 24 24 23 22 21 20 20 20 20 20 19 19 18 17 17 17 16 16 15 15 15 15 15 16 16 16 16 16 15
25 25 25 25 24 24 23 23 23 23 22 22 23 24 24 25 24 24 23 22 21 21 21 21 21 20 19 19 19 18 18 17 17 17 17 17 17 18 18 18 17 17
26 26 26 25 25 24 24 24 23 23 23 23 23 23 23 24 25 25 25 24 23 22 22 22 22 21 21 22 21 21 21 20 19 19 19 19 19 19 19 19 19 19
27 27 27 26 25 25 25 25 25 25 24 24 23 23 23 24 24 25 26 26 25 24 24 23 23 23 23 24 24 24 23 23 22 21 21 21 20 20 20 20 21 21
27 28 29 28 27 27 27 27 26 26 26 25 24 24 25 25 25 25 25 25 24 24 24 25 25 25 25 25 26 26 26 25 24 24 23 23 22 22 22 22 22 22
26 27 28 28 28 29 30 29 28 27 26 25 25 26 26 26 27 27 27 26 25 24 25 26 26 27 26 27 27 27 28 27 26 26 25 24 23 23 23 23 23 23
22 24 25 27 27 28 30 30 30 29 27 26 26 26 26 27 27 28 29 29 27 26 26 26 26 26 26 27 27 28 28 28 28 27 26 24 23 22 22 23 23 24
18 20 21 22 23 24 26 28 29 29 28 27 27 26 26 26 27 29 30 31 30 28 28 27 26 25 25 25 26 27 28 28 28 27 26 25 24 23 22 22 23 24
15 16 17 18 19 20 22 24 26 27 27 27 26 26 25 25 26 28 30 31 30 29 29 27 26 26 26 26 26 27 28 28 28 28 27 26 26 25 24 24 24 24
13 15 16 17 17 18 20 21 21 22 22 23 23 24 25 26 28 28 29 29 29 28 28 27 26 25 24 25 26 27 28 29 29 28 28 28 28 28 27 26 25 25
13 14 15 15 15 15 16 17 17 18 19 20 21 22 24 27 29 28 26 26 26 26 25 25 25 24 23 24 25 26 28 29 29 30 30 30 30 30 29 28 27 27
14 14 14 14 15 15 15 15 16 17 19 21 22 23 25 26 25 24 23 24 24 24 24 24 25 24 24 25 26 27 28 29 30 32 33 33 32 32 31 31 30 30
13 13 14 15 16 16 16 16 16 17 19 21 22 23 24 23 22 21 21 23 22 21 20 21 23 24 25 26 27 28 30 31 31 32 33 33 32 32 32 32 33 34
Wind_Direction
180 180 175 169 165 164 162 162 163 163 166 172 177 181 182 183 188 192 192 191 194 198 200 203 206 210 215 218 221 222 225 226 221 216 216 214 204 191 180 174 179 188
186 188 186 179 175 174 173 174 172 173 176 177 177 176 177 182 187 191 193 194 194 198 201 203 206 209 213 218 221 224 229 233 232 228 226 228 226 217 209 209 212 214
191 192 194 190 187 185 186 185 180 180 184 182 179 177 177 182 187 191 194 194 194 196 200 204 208 211 215 218 222 225 229 232 232 231 231 232 233 231 226 224 228 231
195 194 196 197 197 194 194 194 189 186 188 187 184 183 182 183 187 191 193 192 192 195 198 202 207 212 218 221 224 228 230 232 232 230 230 232 234 235 234 232 232 237
200 199 199 200 201 199 199 201 199 194 193 193 191 188 187 187 189 192 195 195 195 197 198 200 204 211 217 220 223 225 229 232 234 232 232 233 234 236 238 238 237 240
205 204 204 204 203 202 201 204 206 202 199 199 197 196 195 193 193 195 197 198 200 202 202 202 204 209 214 217 218 220 225 231 234 234 235 234 234 236 239 240 241 243
210 209 209 210 208 206 204 205 207 207 207 205 202 203 204 202 200 200 201 202 203 205 207 208 209 209 212 214 215 217 220 225 227 228 232 234 234 236 239 243 246 249
212 212 212 213 213 211 208 208 209 210 212 211 209 209 209 209 210 208 207 207 208 210 213 214 215 214 214 214 215 216 218 221 223 225 229 231 232 236 240 245 249 253
214 215 215 215 216 215 213 212 213 213 214 214 215 215 214 214 216 216 214 213 213 215 216 217 219 219 219 219 219 218 218 220 223 225 231 231 232 236 241 246 249 253
215 216 218 218 217 217 216 216 216 217 217 217 218 219 218 219 221 222 222 221 219 219 219 219 220 221 222 224 225 225 225 226 226 228 233 234 235 237 239 242 247 252
215 216 218 219 219 219 219 218 219 220 220 221 221 222 222 223 226 227 227 227 227 226 224 223 223 222 223 225 228 232 233 234 233 232 235 237 239 241 240 240 242 247
217 217 218 218 219 221 221 221 222 222 223 224 224 225 224 225 227 229 231 231 232 231 230 229 229 227 226 226 229 234 239 242 242 240 239 239 240 243 244 244 243 245
221 221 221 220 220 222 223 224 225 225 226 227 227 228 229 229 229 229 231 232 234 235 235 236 235 233 231 231 232 235 238 242 245 245 243 242 241 243 245 246 246 246
226 226 226 225 223 222 223 226 227 227 229 230 231 232 232 233 233 233 234 234 235 237 238 240 240 239 237 236 236 238 239 242 243 245 245 244 243 244 246 247 249 249
230 230 230 230 228 226 225 226 227 228 230 231 233 235 236 236 236 237 237 237 238 239 240 242 243 243 243 242 241 241 242 243 244 245 246 245 245 246 247 249 250 251
234 234 234 235 234 233 231 231 231 231 230 231 233 236 238 240 240 240 239 239 240 241 242 243 245 246 246 247 247 247 247 248 249 250 250 250 248 248 248 250 251 251
236 236 236 237 238 239 239 238 237 236 235 235 236 237 239 241 242 243 242 241 241 242 244 245 246 246 247 249 252 253 254 255 256 257 258 259 259 257 255 254 254 254
234 234 234 236 238 241 244 242 241 241 241 240 240 240 242 242 243 245 244 243 242 243 245 246 247 247 247 249 252 255 257 259 261 263 264 266 267 267 265 262 261 260
233 233 234 236 237 241 244 243 241 242 242 243 243 243 244 244 245 245 245 244 242 242 244 246 247 247 248 249 251 254 257 259 260 262 264 265 266 266 266 266 266 265
234 236 236 238 239 241 243 243 242 243 244 244 243 243 244 246 246 246 246 244 242 242 244 245 247 248 249 250 252 255 257 259 260 261 262 262 262 262 262 264 265 266
231 236 236 237 238 239 241 242 242 243 244 244 243 243 244 247 249 248 247 245 243 242 243 246 249 251 253 254 255 256 258 260 261 262 262 262 261 260 261 263 265 267
223 227 226 228 230 232 235 237 238 240 243 244 244 243 244 248 251 249 245 244 243 244 245 248 250 253 257 259 260 260 260 261 261 262 263 264 264 263 263 263 265 267
212 214 215 220 226 230 232 232 233 236 239 242 244 244 245 249 251 248 244 243 243 244 246 248 250 253 257 261 262 262 262 261 261 261 262 265 266 266 266 265 265 267
209 211 213 219 224 228 231 232 232 234 235 237 240 243 246 249 250 248 246 246 246 247 248 249 251 254 257 259 260 261 261 260 258 258 261 263 265 265 265 265 265 266
217 218 218 222 225 225 227 230 230 230 232 232 234 237 241 245 249 251 252 252 250 249 250 253 256 258 260 260 261 262 262 261 259 260 262 264 263 263 264 266 265 266
220 220 219 224 227 225 226 229 229 230 231 231 231 233 236 240 243 246 251 254 254 253 252 254 257 260 261 262 262 263 263 263 263 263 265 263 260 259 263 266 266 265